Regional Weather Roundup
Issued by NWS Mobile, AL

Home | Current Version | Previous Version | Text Only | Print | Product List | Glossary On
Versions: 1 2 3 4 5 6 7 8 9 10 11 12 13 14 15 16 17 18 19 20 21 22 23 24 25 26 27
000
ASUS44 KMOB 200810
RWRMOB
REGIONAL WEATHER ROUNDUP
NATIONAL WEATHER SERVICE MOBILE AL
300 AM CDT SUN APR 20 2014

NOTE: "FAIR" INDICATES FEW OR NO CLOUDS BELOW 12,000 FEET WITH NO
      SIGNIFICANT WEATHER AND/OR OBSTRUCTIONS TO VISIBILITY.

  * THESE STATIONS ARE PART OF THE UNIVERSITY OF SOUTH ALABAMA
    MESONET AND ARE NOT UNDER NWS OR FAA QUALITY CONTROL.

ALZ061>064-200900-
COASTAL ALABAMA

CITY           SKY/WX    TMP DP  RH WIND       PRES   REMARKS
MOBILE REG APT CLEAR     58  54  86 E7        30.11F
BROOKLEY FIELD CLEAR     60  55  83 N5        30.11F
USA CAMPUS*      N/A     55  54  94 CALM      30.12F
DOG RIVER*     NOT AVBL


CITY           SKY/WX    TMP DP  RH WIND       PRES   REMARKS
MOUNT VERNON*    N/A     48  46  93 CALM      30.13S
SARALAND*      NOT AVBL
BAY MINETTE*   NOT AVBL
LOXLEY*        NOT AVBL
ROBERTSDALE*   NOT AVBL
FAIRHOPE*      NOT AVBL
ELBERTA*       NOT AVBL
FOLEY*         NOT AVBL
GRAND BAY*       N/A     61  55  82 E2        30.09S
DAUPHIN ISLND* NOT AVBL
BON SCOUR NWR* NOT AVBL
GULF SHORES    CLEAR     57  55  91 NE3       30.09S

$$

ALZ051>060-200900-
INTERIOR SOUTHWEST AND SOUTH CENTRAL ALABAMA

CITY           SKY/WX    TMP DP  RH WIND       PRES   REMARKS
GREENVILLE     CLEAR     54  48  80 NE3       30.13R
EVERGREEN      CLEAR     56  50  80 N3        30.14S
CASTLEBERRY*   NOT AVBL
ATMORE*          N/A     57  54  88 N5        30.13S
DIXIE*         NOT AVBL
ANDALUSIA/OPP  CLOUDY    60  53  77 NE3       30.11S
ANDALUSIA*     NOT AVBL
FLORALA APT    CLEAR     53  51  93 NE6       30.11F
FLORALA*         N/A     55  52  88 VRB6      30.08S

$$

FLZ001>006-200900-
WESTERN FLORIDA PANHANDLE

CITY           SKY/WX    TMP DP  RH WIND       PRES   REMARKS
PENSACOLA      CLEAR     60  54  80 N3        30.09S
NAS PENSACOLA  CLEAR     59  55  87 N3        30.09S
MILTON         CLEAR     58  51  78 NE5       30.10R
WHTNG S FIELD  CLEAR     59  52  77 NE6       30.10R


CITY           SKY/WX    TMP DP  RH WIND       PRES   REMARKS
WALNUT HILL*   NOT AVBL
JAY*           NOT AVBL
DUKE FIELD     PTCLDY    56  56  99 N7        30.09S
CRESTVIEW      CLEAR     57  53  86 NE7       30.11S
VALPARAISO     PTCLDY    57  55  92 NE5       30.09S
DESTIN         PTCLDY    61  53  75 N7        30.09R

$$

MSZ076-079-200900-
INTERIOR SOUTHEAST MISSISSIPPI

CITY           SKY/WX    TMP DP  RH WIND       PRES   REMARKS
LEAKESVILLE*     N/A     54  50  87 E3        30.11F
AGRICOLA*      NOT AVBL

$$

MARINE OBSERVATIONS

STATION/POSITION TIME  TEMP    WIND        PRES    WAVE
                       AIR SEA DIR/SP/G            HT/PER
                 (UTC) (F)     (DEG/KT/KT) (MB)    (FT/S)
PASCAGOULA       0800   62      80/  4/  5 1018.9R
PETIT BOIS ISLND 0800   64      90/  5/  6 1019.3R
GRAND BAY        0700   63      80/  5     1020.0S
KATRINA CUT      0700   64      70/  7     1020.3S
CEDAR POINT      0700   65      60/  9     1019.3F
E DAUPHIN ISLAND 0800   64      40/  7/  8 1018.8F
MIDDLE BAY LIGHT 0700   63      30/  5     1018.6F
USCG MOBILE BAY  0800   62 64  340/  3/  4 1018.3F
STATE DOCKS      0800   62 64              1019.1F
MEAHER PARK      0700   59     360/  2     1020.0S
WEEKS BAY        0700   53                   N/A
FORT MORGAN      0800   64      60/ 11/ 13 1018.5F
12 S ORANGE BCH  0800   65 66   50/ 16/ 19 1018.7S   2/ 4
PENSACOLA BAY    0800   63 66   20/  4/  8 1019.3R
64 S DAUPHIN ISL 0732   68 70   60/ 16/ 19 1019.4R
67 S FORT MORGAN 0700   68                 1018.0S

$$

SELECTED LOCATIONS ACROSS THE REGION

CITY           SKY/WX    TMP DP  RH WIND       PRES   REMARKS
NEW ORLEANS    CLEAR     61  57  87 W3        30.11S
GULFPORT       CLEAR     61  52  72 NE3       30.10R
PASCAGOULA AP  CLEAR     56  53  90 E3        30.10F
PASCAGOULA*      N/A     61  57  88 CALM      30.10F
HATTIESBURG    CLEAR     52  51  97 CALM      30.12S
LAUREL         CLEAR     55  48  76 NE5       30.12S
MERIDIAN       CLEAR     48  47  96 CALM      30.14R
JACKSON        CLEAR     51  50  96 CALM      30.13R
MONTGOMERY     CLEAR     57  47  69 NE14      30.15R
TROY           CLOUDY    56  48  74 N5        30.13S
KINSTON*       NOT AVBL
GENEVA*          N/A     55  52  88 NE10      30.12F
ASHFORD*       NOT AVBL
DOTHAN         CLOUDY    55  52  89 NE12      30.13S
PANAMA CITY    CLEAR     59  52  77 N7        30.06S

$$




USA.gov is the U.S. government's official web portal to all federal, state and local government web resources and services.